CW6876 Weather Reports


Display with metric or nautical units.
time (UTC)temp
F
wind
direction
speed
MPH
gust
MPH
rain 1hr
in
rain 24hr
in
rain mn
in
humidity
%
barometer
mb
20260901000046 71 205 0.0 0.0 0.00 0.00 0.00 88 1018.5
20260831234512 71 205 0.0 0.0 0.00 0.00 0.00 87 1018.5
20260831233104 71 205 0.0 0.0 0.00 0.00 0.00 87 1018.5
20260831231550 72 205 0.0 0.0 0.00 0.00 0.00 87 1018.5
20260831230024 72 205 0.0 0.0 0.00 0.00 0.00 87 1018.8
20260831224608 72 205 0.0 0.0 0.00 0.00 0.00 87 1019.0
20260831223048 73 205 0.0 0.0 0.00 0.00 0.00 87 1019.1
20260831221534 73 205 0.0 0.0 0.00 0.00 0.00 87 1019.0
20260831220014 73 205 0.0 0.0 0.00 0.00 0.00 87 1019.2
20260831214604 72 205 0.0 0.0 0.00 0.00 0.00 87 1019.2
20260831213056 72 205 0.0 0.0 0.00 0.00 0.00 87 1019.3
20260831211524 73 205 0.0 0.0 0.00 0.00 0.00 88 1019.6
20260831210114 72 205 0.0 0.0 0.00 0.00 0.00 89 1019.6
20260831204522 72 205 0.0 0.0 0.00 0.00 0.00 88 1019.4
20260831203003 72 205 0.0 0.0 0.00 0.00 0.00 89 1019.6
20260831201547 73 205 0.0 0.0 0.00 0.00 0.00 86 1019.9
20260831200012 73 205 0.0 0.0 0.00 0.00 0.00 84 1020.1
20260831194619 73 205 0.0 0.0 0.00 0.00 0.00 86 1020.1
20260831193036 73 205 0.0 0.0 0.00 0.00 0.00 85 1020.4
20260831191535 72 205 0.0 0.0 0.00 0.00 0.00 88 1020.5
20260831190006 73 205 0.0 0.0 0.00 0.00 0.00 86 1020.8
20260831184559 73 205 0.0 0.0 0.00 0.09 0.00 83 1020.9
20260831183038 73 205 0.0 0.0 0.00 0.09 0.00 83 1021.0
20260831181516 72 205 0.0 0.0 0.00 0.09 0.00 86 1020.8
20260831180009 72 205 0.0 0.0 0.00 0.09 0.00 84 1020.8
20260831174537 74 205 0.0 0.0 0.00 0.09 0.00 80 1020.9
20260831173015 72 252 0.0 0.0 0.00 0.09 0.00 84 1021.0
20260831171610 72 252 0.0 0.0 0.00 0.09 0.00 83 1021.1
20260831170051 72 252 0.0 0.0 0.00 0.09 0.00 86 1021.1
20260831164544 72 252 0.0 0.0 0.00 0.09 0.00 81 1021.1
20260831163104 73 252 0.0 1.0 0.00 0.09 0.00 81 1021.0
20260831161531 73 160 0.0 3.0 0.00 0.09 0.00 81 1021.0
20260831160017 73 212 0.0 2.0 0.00 0.09 0.00 81 1021.1
20260831154556 72 73 0.0 1.0 0.00 0.09 0.00 82 1021.3
20260831153041 72 112 0.0 3.0 0.00 0.09 0.00 80 1021.1
20260831151508 71 89 0.0 1.0 0.00 0.09 0.00 84 1021.2
20260831150042 70 281 0.0 0.0 0.00 0.09 0.00 86 1021.3
20260831144506 70 27 0.0 0.0 0.00 0.09 0.00 88 1021.5
20260831143110 70 27 0.0 0.0 0.00 0.09 0.00 90 1021.4
20260831141540 69 27 0.0 0.0 0.00 0.09 0.00 91 1021.5
20260831140006 69 27 0.0 0.0 0.00 0.09 0.00 92 1021.4
20260831134556 68 27 0.0 0.0 0.00 0.09 0.00 93 1021.3
20260831133034 68 27 0.0 0.0 0.00 0.09 0.00 94 1021.3
20260831131503 68 29 0.0 0.0 0.00 0.09 0.00 95 1021.3
20260831130056 68 29 0.0 0.0 0.00 0.09 0.00 95 1021.3
20260831124551 67 29 0.0 0.0 0.00 0.09 0.00 95 1021.2
20260831123027 67 29 0.0 0.0 0.00 0.09 0.00 95 1021.3
20260831121516 67 29 0.0 0.0 0.00 0.09 0.00 95 1021.1
20260831120059 67 29 0.0 0.0 0.00 0.09 0.00 95 1021.2
20260831114531 67 29 0.0 0.0 0.00 0.09 0.00 95 1021.1
20260831113109 67 29 0.0 0.0 0.00 0.09 0.00 95 1021.0
20260831111537 67 0.0 0.0 0.00 0.09 0.00 95 1020.9
20260831110011 67 0.0 0.0 0.00 0.09 0.00 95 1020.7
20260831104603 67 0.0 0.0 0.00 0.09 0.00 95 1020.6
20260831103036 68 0.0 0.0 0.00 0.09 0.00 95 1020.6
20260831101556 68 0.0 0.0 0.00 0.09 0.00 95 1020.4
20260831100020 68 0.0 0.0 0.00 0.09 0.00 95 1020.3
20260831094607 68 0.0 0.0 0.00 0.09 0.00 95 1020.2
20260831093030 68 29 0.0 0.0 0.00 0.09 0.00 95 1020.0
20260831091607 68 29 0.0 0.0 0.00 0.09 0.00 95 1019.7
20260831090043 68 29 0.0 0.0 0.00 0.09 0.00 95 1020.0
20260831084534 68 29 0.0 0.0 0.00 0.09 0.00 95 1020.1
20260831083038 68 29 0.0 0.0 0.00 0.09 0.00 95 1019.9
20260831081505 69 29 0.0 0.0 0.00 0.09 0.00 95 1019.7
20260831080104 69 29 0.0 0.0 0.00 0.09 0.00 94 1019.8
20260831074547 69 29 0.0 0.0 0.00 0.09 0.00 94 1019.8
20260831073051 69 29 0.0 0.0 0.00 0.09 0.00 94 1019.9
20260831071517 69 29 0.0 0.0 0.00 0.09 0.00 94 1019.9
20260831070058 69 29 0.0 0.0 0.00 0.09 0.00 94 1020.0
20260831064541 69 29 0.0 0.0 0.00 0.09 0.00 94 1020.1
20260831063003 69 29 0.0 0.0 0.00 0.09 0.00 94 1020.2
20260831061556 69 29 0.0 0.0 0.00 0.09 0.00 94 1020.2
20260831060043 69 29 0.0 0.0 0.00 0.09 0.00 93 1020.0
20260831054613 70 29 0.0 1.0 0.00 0.09 0.00 93 1020.0
20260831053037 70 29 0.0 0.0 0.00 0.09 0.00 93 1020.0
20260831051506 70 29 0.0 0.0 0.00 0.09 0.00 93 1020.1
20260831050056 70 29 0.0 0.0 0.00 0.09 0.00 92 1020.2
20260831044520 70 29 0.0 0.0 0.00 0.09 0.00 92 1020.0
20260831043115 70 29 0.0 0.0 0.00 0.09 0.00 92 1020.1
20260831041529 70 29 0.0 0.0 0.00 0.09 0.00 92 1020.1
20260831040117 70 109 0.0 3.0 0.00 0.09 0.00 92 1020.3
20260831034543 70 173 0.0 0.0 0.00 0.09 0.09 91 1020.1
20260831033022 71 247 0.0 0.0 0.00 0.09 0.09 91 1020.2
20260831031604 71 247 0.0 0.0 0.00 0.09 0.09 91 1020.4
20260831030051 71 246 0.0 0.0 0.00 0.09 0.09 91 1020.5
20260831024530 71 158 0.0 0.0 0.00 0.09 0.09 92 1020.7
20260831023003 72 356 0.0 3.0 0.00 0.09 0.09 93 1020.9
20260831021556 73 278 1.0 5.0 0.00 0.09 0.09 94 1020.6
20260831014524 73 281 0.0 4.0 0.00 0.09 0.09 94 1020.5
20260831013011 73 149 0.0 0.0 0.00 0.09 0.09 94 1020.5
20260831011602 73 150 0.0 0.0 0.00 0.09 0.09 94 1020.4
20260831010029 73 149 0.0 0.0 0.00 0.09 0.09 93 1020.2
20260831004503 74 189 0.0 0.0 0.00 0.09 0.09 93 1020.0
20260831003046 74 188 0.0 0.0 0.00 0.09 0.09 93 1020.0
20260831001512 74 188 0.0 0.0 0.00 0.09 0.09 93 1019.7